DW8248 Weather Reports


time (UTC)temp
C
wind
direction
speed
KPH
gust
KPH
rain 1hr
cm
rain 24hr
cm
rain mn
cm
humidity
%
barometer
mb
20180820131029 29 344 1.6 8.0 0.00 0.00 0.00 79 1018.4
20180820130021 28 344 4.8 8.0 0.00 0.00 0.00 81 1018.3
20180820125032 28 11 3.2 6.4 0.00 0.00 0.00 83 1018.1
20180820124023 27 19 3.2 6.4 0.00 0.00 0.00 84 1018.0
20180820123031 27 347 4.8 8.0 0.00 0.00 0.00 85 1017.9
20180820122007 27 355 3.2 8.0 0.00 0.00 0.00 87 1017.9
20180820120951 27 355 3.2 6.4 0.00 0.00 0.00 89 1017.7
20180820115957 26 0 1.6 6.4 0.00 0.00 0.00 90 1017.6
20180820114928 26 5 3.2 11.3 0.00 0.00 0.00 90 1017.4
20180820113943 26 318 6.4 11.3 0.00 0.00 0.00 90 1017.4
20180820112907 26 317 4.8 8.0 0.00 0.00 0.00 90 1017.3
20180820111925 26 338 3.2 8.0 0.00 0.00 0.00 90 1017.1
20180820110940 26 355 3.2 6.4 0.00 0.00 0.00 90 1017.1
20180820105955 26 336 4.8 8.0 0.00 0.00 0.00 90 1017.0
20180820104923 26 319 4.8 8.0 0.00 0.00 0.00 90 1017.0
20180820103848 26 311 6.4 9.7 0.00 0.00 0.00 89 1016.9
20180820102818 26 315 8.0 12.9 0.00 0.00 0.00 89 1016.8
20180820101749 26 289 8.0 12.9 0.00 0.00 0.00 87 1016.7
20180820100739 26 277 4.8 8.0 0.00 0.00 0.00 87 1016.7
20180820095756 26 258 4.8 6.4 0.00 0.00 0.00 88 1016.4
20180820094730 26 250 4.8 6.4 0.00 0.00 0.00 90 1016.4
20180820093741 26 249 1.6 6.4 0.00 0.00 0.00 90 1016.3
20180820092712 26 122 1.6 4.8 0.00 0.00 0.00 88 1016.3
20180820091640 26 144 0.0 4.8 0.00 0.00 0.00 89 1016.2
20180820090640 26 144 1.6 4.8 0.00 0.00 0.00 90 1016.1
20180820085639 26 138 1.6 4.8 0.00 0.00 0.00 90 1015.9
20180820084610 25 142 0.0 0.0 0.00 0.00 0.00 90 1015.9
20180820083613 25 142 0.0 0.0 0.00 0.00 0.00 90 1015.8
20180820082539 25 142 0.0 0.0 0.00 0.00 0.00 90 1015.8
20180820081549 25 142 0.0 0.0 0.00 0.00 0.00 90 1015.9
20180820080540 25 142 0.0 0.0 0.00 0.00 0.00 90 1015.9
20180820075508 26 142 1.6 4.8 0.00 0.00 0.00 90 1015.9
20180820074503 26 144 1.6 3.2 0.00 0.00 0.00 90 1015.9
20180820073448 26 144 0.0 0.0 0.00 0.00 0.00 90 1016.1
20180820072507 26 144 0.0 0.0 0.00 0.00 0.00 90 1016.2
20180820071441 26 144 0.0 0.0 0.00 0.00 0.00 89 1016.3
20180820070405 26 144 0.0 0.0 0.00 0.00 0.00 89 1016.2
20180820065350 26 144 0.0 0.0 0.00 0.00 0.00 89 1016.2
20180820064327 26 144 0.0 0.0 0.00 0.00 0.00 88 1016.4
20180820063329 26 144 0.0 0.0 0.00 0.00 0.00 88 1016.6
20180820062333 26 144 0.0 0.0 0.00 0.00 0.00 88 1016.6
20180820061354 26 144 1.6 3.2 0.00 0.00 0.00 88 1016.7
20180820060339 26 144 1.6 3.2 0.00 0.00 0.00 88 1016.7
20180820055331 26 144 1.6 6.4 0.00 0.00 0.00 88 1016.9
20180820054310 26 142 3.2 6.4 0.00 0.00 0.00 88 1016.9
20180820053316 26 85 1.6 4.8 0.00 0.00 0.00 88 1016.9
20180820052317 26 79 1.6 3.2 0.00 0.00 0.00 87 1016.9
20180820051319 26 49 0.0 0.0 0.00 0.00 0.00 87 1017.1
20180820050328 26 9 0.0 0.0 0.00 0.00 0.00 85 1017.2
20180820045302 26 9 0.0 0.0 0.00 0.00 0.00 84 1017.3
20180820044322 26 9 0.0 0.0 0.00 0.00 0.00 84 1017.3
20180820043322 26 9 0.0 0.0 0.00 0.00 0.00 84 1017.4
20180820042258 26 9 0.0 0.0 0.00 0.00 0.00 84 1017.5
20180820041224 26 355 0.0 0.0 0.00 0.00 0.00 84 1017.6
20180820040153 26 355 1.6 4.8 0.00 0.00 0.00 84 1017.6
20180820035118 26 342 1.6 4.8 0.00 0.00 0.00 84 1017.6
20180820034133 26 355 1.6 4.8 0.00 0.00 0.00 84 1017.6
20180820033058 26 0 1.6 11.3 0.00 0.00 0.00 84 1017.7
20180820032104 26 349 6.4 11.3 0.00 0.00 0.00 85 1017.6
20180820031048 26 310 0.0 9.7 0.00 0.00 0.00 85 1017.7
20180820030105 26 0 0.0 0.0 0.00 0.00 0.00 85 1017.6
20180820025125 26 5 1.6 6.4 0.00 0.00 0.00 85 1017.4
20180820024058 25 17 1.6 6.4 0.00 0.00 0.00 85 1017.3
20180820023109 26 22 3.2 6.4 0.00 0.00 0.00 84 1017.1
20180820022107 26 5 4.8 11.3 0.00 0.00 0.00 84 1017.2
20180820021115 26 355 6.4 12.9 0.00 0.00 0.00 83 1017.2
20180820020045 26 340 6.4 12.9 0.00 0.00 0.00 83 1017.3
20180820015020 26 5 12.9 20.9 0.00 0.00 0.00 83 1017.3
20180820014034 26 324 16.1 22.5 0.00 0.00 0.00 83 1017.3
20180820013039 26 325 17.7 30.6 0.00 0.00 0.00 81 1017.3
20180820012005 26 307 20.9 30.6 0.00 0.00 0.00 80 1017.3
20180820011000 26 304 19.3 27.4 0.00 0.00 0.00 80 1017.3
20180820005938 26 305 17.7 27.4 0.00 0.00 0.00 81 1017.0
20180820004909 26 300 14.5 19.3 0.00 0.00 0.00 78 1017.0
20180820003851 26 277 12.9 19.3 0.00 0.00 0.00 79 1016.9
20180820002826 26 254 14.5 19.3 0.00 0.00 0.00 77 1016.7
20180820001839 26 232 9.7 16.1 0.00 0.00 0.00 80 1016.8
20180820000813 26 221 9.7 12.9 0.00 0.00 0.00 83 1016.7
20180819235816 26 229 8.0 14.5 0.00 0.00 0.00 82 1016.6
20180819234751 26 218 8.0 14.5 0.00 0.00 0.00 82 1016.2
20180819233715 26 187 6.4 12.9 0.00 0.00 0.00 82 1016.0
20180819232733 26 202 11.3 16.1 0.00 0.00 0.00 80 1015.9
20180819231747 26 227 11.3 17.7 0.00 0.00 0.00 78 1016.1
20180819230738 26 220 17.7 30.6 0.00 0.00 0.00 77 1015.9
20180819225725 27 225 24.1 41.8 0.00 0.00 0.00 75 1016.1
20180819224729 27 229 22.5 41.8 0.00 0.00 0.00 76 1016.1
20180819223730 29 138 12.9 22.5 0.00 0.00 0.00 81 1015.7
20180819222659 29 149 16.1 22.5 0.00 0.00 0.00 83 1015.6
20180819221658 29 143 14.5 24.1 0.00 0.00 0.00 82 1015.6
20180819220636 29 107 14.5 24.1 0.00 0.00 0.00 81 1015.5
20180819215648 29 113 14.5 24.1 0.00 0.00 0.00 79 1015.5
20180819214617 29 147 14.5 22.5 0.00 0.00 0.00 81 1015.5
20180819213626 30 137 11.3 22.5 0.00 0.00 0.00 81 1015.5
20180819212614 30 151 11.3 22.5 0.00 0.00 0.00 81 1015.4
20180819211606 29 132 14.5 22.5 0.00 0.00 0.00 82 1015.5
20180819210621 29 130 12.9 20.9 0.00 0.00 0.00 81 1015.5
20180819205550 29 109 11.3 20.9 0.00 0.00 0.00 81 1015.4
20180819204532 30 117 11.3 20.9 0.00 0.00 0.00 82 1015.1
20180819203543 30 111 9.7 19.3 0.00 0.00 0.00 81 1015.1
20180819202601 29 146 12.9 20.9 0.00 0.00 0.00 82 1015.2
20180819201530 29 120 11.3 20.9 0.00 0.00 0.00 81 1015.3
20180819200503 30 131 11.3 19.3 0.00 0.00 0.00 80 1015.4
20180819195511 30 105 9.7 16.1 0.00 0.00 0.00 79 1015.6
20180819194438 30 107 9.7 17.7 0.00 0.00 0.00 81 1015.5
20180819193418 30 121 9.7 17.7 0.00 0.00 0.00 80 1015.7
20180819192423 30 115 11.3 22.5 0.00 0.00 0.00 82 1015.7
20180819191422 29 133 14.5 22.5 0.00 0.00 0.00 81 1016.0
20180819190401 30 154 9.7 17.7 0.00 0.00 0.00 81 1015.9
20180819185400 29 120 12.9 22.5 0.00 0.00 0.00 82 1015.9
20180819184357 29 108 11.3 22.5 0.00 0.00 0.00 81 1016.0
20180819183320 29 101 11.3 22.5 0.00 0.00 0.00 81 1016.0
20180819182246 29 109 12.9 20.9 0.00 0.00 0.00 82 1016.2
20180819181238 28 112 12.9 20.9 0.00 0.00 0.00 83 1016.3
20180819180202 29 120 12.9 17.7 0.00 0.00 0.00 83 1016.4
20180819175133 29 96 8.0 19.3 0.00 0.00 0.00 82 1016.6
20180819174150 29 76 8.0 19.3 0.00 0.00 0.00 82 1016.6
20180819173201 29 107 8.0 16.1 0.00 0.00 0.00 83 1016.7
20180819172205 29 113 9.7 16.1 0.00 0.00 0.00 83 1016.8
20180819171217 29 97 8.0 16.1 0.00 0.00 0.00 83 1016.9
20180819170221 29 140 8.0 14.5 0.00 0.00 0.00 82 1016.9
20180819165203 29 100 8.0 16.1 0.00 0.00 0.00 82 1017.2
20180819164203 29 131 8.0 16.1 0.00 0.00 0.00 82 1017.3
20180819163208 29 80 6.4 17.7 0.00 0.00 0.00 82 1017.3
20180819162201 28 108 8.0 17.7 0.00 0.00 0.00 82 1017.4
20180819161127 29 121 6.4 12.9 0.00 0.00 0.00 81 1017.5
20180819160119 29 107 8.0 12.9 0.00 0.00 0.00 81 1017.5
20180819155100 29 95 6.4 12.9 0.00 0.00 0.00 81 1017.5
20180819154052 29 109 6.4 12.9 0.00 0.00 0.00 82 1017.8
20180819153101 29 126 6.4 11.3 0.00 0.00 0.00 81 1017.8
20180819152103 28 82 4.8 12.9 0.00 0.00 0.00 83 1017.7
20180819151123 28 123 6.4 12.9 0.00 0.00 0.00 82 1017.7
20180819150124 28 113 6.4 11.3 0.00 0.00 0.00 83 1017.7
20180819145057 29 89 3.2 11.3 0.00 0.00 0.00 81 1017.7
20180819144058 29 72 4.8 11.3 0.00 0.00 0.00 81 1017.7
20180819143050 29 67 3.2 8.0 0.00 0.00 0.00 80 1017.6
20180819142111 28 157 3.2 8.0 0.00 0.00 0.00 79 1017.5
20180819141112 28 167 1.6 8.0 0.00 0.00 0.00 82 1017.4
20180819140127 28 169 3.2 6.4 0.00 0.00 0.00 83 1017.3
20180819135116 28 180 3.2 6.4 0.00 0.00 0.00 84 1017.3
20180819134137 28 184 1.6 4.8 0.00 0.00 0.00 85 1017.2
20180819133143 27 186 3.2 6.4 0.00 0.00 0.00 86 1017.1
20180819132126 27 186 1.6 6.4 0.00 0.00 0.00 87 1017.1